一网星座-0505星 (ONEWEB-0505 )

导读 | 豆包AI

ONEWEB-0505是英国主导的OneWeb低轨互联网星座卫星,于2022年10月22日发射升空,隶属于欧洲通信卫星公司旗下OneWeb星座系统。该卫星运行于低地球轨道,配备Ku波段透明转发器,为全球提供高速低时延宽带通信服务,支持政府、商业及军方联网需求,同时支撑5G-Advanced非地面网络技术试验,助力卫星与地面网络融合,推进全球泛在互联,是欧洲对抗星链的重要战略资源。

Basic Information
目录编号:
54123
目录名称:
ONEWEB-0505
国际标识:
2022-138L
轨道中心:
EARTH
卫星名称:
一网星座-0505星
卫星全名:
一网星座-0505星 (ONEWEB-0505 )
卫星状态:
在轨 (已飞行1239 天)
发射日期:
2022-10-22 UTC
国别 :
英国 (GB)
星等 :
--
Orbit Information
数据来源 国际轨道数据 AOE轨道数据
星历时间 2026-03-14T07:24:03+0800
7小时前
查看轨道信息
2026-03-11T13:00:00+0800
3天前
查看轨道信息
半长轴 7563.911km 7563.92km
偏心率 0.0001725 0.0001363
轨道倾角 87.923° 87.924°
近地点辐角 97.709° 67.541°
升交点赤经 323.932° 324.482°
平近点角 262.424° 115.497°
近地点 1184.469km 1184.752km
远地点 1187.079km 1186.814km
周期 109.114分钟 109.114分钟
每日圈数 13.197243 13.197218
Detailed Information
平衡模式:
三轴稳定
覆盖范围:
全球
运营商:
一网卫星公司
运营商所在国:
英国
制造商(研发单位):
一网卫星公司
制造商所在国:
英国
使用方式:
暂无
Satellite Introduction
OneWeb卫星网络由648颗重约125公斤的微型卫星组成,运行在1200公里的轨道上。 每颗卫星都能够提供至少每秒8千兆位的吞吐量,以使用其高吞吐量的Ku频段有效载荷为家庭和移动平台提供互联网接入。该卫星仍在工作。
2D Orbit Map
3D Orbit Map
Orbit Altitude Analysis Chart
Orbit Inclination Analysis Chart
Orbit Comprehensive Analysis Chart
View Comprehensive Chart